STARLINK-30268 (57531 NORAD) Tracking and Keplerian Element Data

This shows tracking and keplerian element data for the satellite.

Feedback or suggestion? Click here.




ElementValue
Catalog57531
NameSTARLINK-30268
Epoch Orbit396
Epoch Day239.16667824
Epoch Year2023
RAAN359.589
Inclination42.9995
Eccentricity0.0001745
Argument of Perigee271.1589
Mean Anonmoly88.1385
Mean Motion15.5474202
Decay Rate-0.01512004
L11 57531U 23115L 23239.16667824 -.01512004 00000+0 -24916-1 0 9999
L22 57531 42.9995 359.5890 0001745 271.1589 88.1385 15.54742020 3961



Live tracking and technical data element details for STARLINK-30268 (NORAD 57531). STARLINK-30268 can be tracked NOW for your location showing map with azimuth and elevation plus other details from your city location.







IsCatalogInMostPopularTable: catalog: 57531, numindb: 5
Update: records affected: 1



GetName: 57531 STARLINK-30268

Hit Count: updated at: Tue, 26 Sep 2023 12:51:23 GMT